User: anonymous   Login
Location: Gorze? G�rny
(49.8500°N, 19.5000°E)
Time: 15:06:50
(UTC+00:00)
Language:

ONEWEB-0018 - Orbit

View from above orbital plane
View from above orbital plane
View from above satellite
View from above satellite

Ground track
Ground track

The orbit data is extracted from the following two-line orbital elements,

1 45434U 20020L   21332.09168152 -.00000414  00000-0 -12041-2 0  9998
2 45434  87.8900 351.5398 0002086  90.3166 269.8201 13.11413746 84796
Epoch (UTC): 28 November 2021 02:12:01
Eccentricity: 0.0002086
inclination: 87.8900°
perigee height: 1216 km
apogee height: 1219 km
right ascension of ascending node: 351.5398°
argument of perigee: 90.3166°
revolutions per day: 13.11413746
mean anomaly at epoch: 269.8201°
orbit number at epoch: 8479

The dashed part of the orbit path shows where the satellite is in the earth's shadow,  

DLR